This demonstration page uses our WeatherBlox Daily Observations layout. Learn more.

Left ArrowRight Arrow

34.74481, -87.66753

Hourly Observations for May 30, 2022

Temp ( °F °C ) Dew Point ( °F °C ) Humidity (%) Winds ( mph kmh ) Pressure ( in mb ) Visibility ( mi km ) Precip ( " mm )
12:53 am 00:53 Clear 67 19.4 61 16.1 81 81 SSE 3 6 29.95 1014 10 16 0.00 0.00
1:53 am 01:53 Clear 66 18.9 61 16.1 84 84 SE 5 7 29.95 1014 10 16 0.00 0.00
2:53 am 02:53 Clear 66 18.9 61 16.1 84 84 SE 7 11 29.95 1014 10 16 0.00 0.00
3:53 am 03:53 Clear 67 19.4 61 16.1 81 81 SE 5 7 29.95 1014 10 16 0.00 0.00
4:53 am 04:53 Clear 65 18.3 61 16.1 87 87 SE 6 9 29.95 1014 10 16 0.00 0.00
5:53 am 05:53 Sunny 66 18.9 63 17.2 90 90 Calm 29.97 1015 10 16 0.00 0.00
7:11 am 07:11 Cloudy 72 22.2 68 20 87 87 SSE 6 9 29.99 1016 10 16 0.00 0.00
7:53 am 07:53 Cloudy 74 23.3 69 20.6 85 85 SSE 7 11 30.00 1016 10 16 0.00 0.00
8:53 am 08:53 Cloudy 76 24.4 70 21.1 82 82 S 8 13 30.02 1017 10 16 0.00 0.00
9:53 am 09:53 Mostly Cloudy 80 26.7 69 20.6 69 69 S 12 19 30.01 1016 10 16 0.00 0.00
10:15 am 10:15 Mostly Cloudy 80 26.7 69 20.6 69 69 S 10 17 30.00 1016 10 16 0.00 0.00
10:53 am 10:53 Mostly Cloudy 82 27.8 69 20.6 65 65 S 9 15 30.01 1016 10 16 0.00 0.00
11:53 am 11:53 Mostly Cloudy 83 28.3 67 19.4 59 59 S 12 19 30.01 1016 10 16 0.00 0.00
12:53 pm 12:53 Partly Cloudy 86 30 66 18.9 51 51 SSW 13 20 30.00 1016 10 16 0.00 0.00
1:53 pm 13:53 Partly Cloudy 86 30 65 18.3 49 49 S 13 20 29.98 1015 10 16 0.00 0.00
2:53 pm 14:53 Partly Cloudy 88 31.1 64 17.8 45 45 S 13 20 29.97 1015 10 16 0.00 0.00
3:53 pm 15:53 Partly Cloudy 89 31.7 64 17.8 43 43 S 12 19 29.96 1015 10 16 0.00 0.00
4:53 pm 16:53 Partly Cloudy 88 31.1 64 17.8 45 45 SSE 13 20 29.96 1015 10 16 0.00 0.00
5:53 pm 17:53 Sunny 86 30 64 17.8 48 48 S 9 15 29.96 1015 10 16 0.00 0.00
6:53 pm 18:53 Sunny 85 29.4 64 17.8 50 50 S 8 13 29.96 1015 10 16 0.00 0.00
7:53 pm 19:53 Sunny 80 26.7 66 18.9 62 62 SE 3 6 29.97 1015 10 16 0.00 0.00
8:53 pm 20:53 Mostly Clear 78 25.6 66 18.9 67 67 SSE 5 7 30.00 1016 10 16 0.00 0.00
9:53 pm 21:53 Clear 76 24.4 66 18.9 72 72 SE 3 6 30.00 1016 10 16 0.00 0.00
10:53 pm 22:53 Clear 72 22.2 66 18.9 82 82 Calm 29.98 1015 10 16 0.00 0.00
11:53 pm 23:53 Clear 68 20 65 18.3 90 90 ESE 5 7 29.99 1016 10 16 0.00 0.00

Powered by AerisWeather